Wind_Speed
67 66 63 63 62 59 64 69 64 61 58 54 48 44 43 45 40 38 38 35 33 31 30 27 26 24 20 21 22 22 24 25 26 25 24 22 21 19 22 23 22 21 22 23 24 25 26 26 28
68 68 67 64 62 59 63 70 70 62 60 58 51 46 42 44 43 40 40 37 35 33 30 28 29 24 22 22 23 24 23 25 27 27 26 23 21 23 27 27 25 23 21 21 23 24 26 28 29
73 73 72 67 63 61 65 72 78 67 61 56 54 50 45 44 43 40 39 39 36 34 28 28 29 27 24 22 24 25 23 24 26 28 26 23 22 25 28 25 25 22 20 18 20 21 23 26 27
74 75 74 70 66 68 69 77 81 73 64 58 54 51 47 45 47 42 38 34 36 33 25 26 28 28 25 23 24 25 24 25 25 26 25 24 23 26 26 23 23 22 19 17 22 19 16 16 16
70 78 74 73 72 77 79 81 81 74 67 61 54 52 49 48 49 46 41 34 34 33 29 25 27 26 24 23 25 25 25 25 25 25 23 24 24 27 24 21 19 19 17 19 14 14 15 15 18
62 67 71 75 80 82 83 85 76 78 74 66 60 54 51 50 51 51 47 42 38 36 35 29 27 27 25 24 26 26 25 25 26 25 23 22 25 25 22 18 17 18 13 9 14 16 18 19 24
51 54 61 71 76 82 89 86 82 82 80 74 65 60 52 54 55 53 49 48 46 41 38 36 32 29 28 27 28 28 26 26 26 25 22 21 25 22 16 12 11 10 4 8 12 16 19 23 27
52 50 52 58 71 79 87 85 85 85 85 77 71 63 59 58 56 49 51 49 48 45 38 37 34 31 30 29 29 27 25 25 27 26 21 19 23 14 8 10 10 3 2 5 12 18 22 26 28
58 52 55 56 59 69 76 81 83 85 86 82 74 68 63 59 55 50 54 50 44 44 42 38 36 32 32 32 30 28 27 25 28 26 19 18 17 8 8 2 6 3 2 6 12 17 24 28 31
60 59 65 62 59 62 68 73 81 82 85 84 79 74 69 63 60 54 54 52 46 43 43 39 37 35 33 34 36 32 28 26 29 26 18 16 8 6 4 7 5 4 4 7 13 18 27 32 32
61 61 68 70 66 63 65 65 72 79 87 87 83 78 74 70 66 61 54 56 50 46 40 39 38 37 34 34 34 36 30 28 28 27 18 17 11 5 6 10 6 6 8 14 17 23 28 32 32
57 63 69 73 72 69 71 69 61 73 83 92 84 80 79 74 72 70 63 55 57 51 48 45 41 40 39 36 33 32 32 29 27 26 20 17 14 7 10 10 8 10 12 20 24 28 34 31 29
62 61 65 72 75 76 75 73 70 64 76 83 90 84 80 78 76 74 66 59 54 55 50 51 47 40 42 33 33 32 33 32 29 26 21 20 18 15 14 15 15 14 16 22 28 31 34 26 29
67 65 66 65 74 80 81 78 74 69 68 77 79 90 81 77 80 77 75 64 57 51 49 51 46 37 36 34 35 36 34 33 29 26 20 22 20 19 20 22 20 18 18 23 27 32 30 28 30
71 71 71 70 73 81 86 81 71 79 77 72 76 77 89 78 74 75 75 75 61 54 46 52 52 51 48 47 41 36 34 33 31 26 21 25 23 17 17 22 21 20 22 21 24 25 26 28 32
68 69 72 76 80 84 89 76 84 85 82 76 69 77 76 85 76 71 73 70 63 59 52 47 54 56 48 42 40 38 33 33 30 23 21 28 27 23 20 19 21 22 22 22 24 24 26 29 32
52 55 64 76 85 87 88 78 87 91 89 81 74 69 78 83 84 71 72 67 65 61 52 49 50 47 45 40 38 35 32 32 31 25 23 29 33 28 24 24 20 21 21 21 24 22 26 31 33
54 55 56 65 76 86 86 79 90 94 92 87 80 72 68 79 83 77 72 74 69 66 58 49 46 49 47 43 40 37 33 32 34 31 28 27 31 36 35 30 28 27 26 24 23 22 25 29 35
59 56 53 55 66 76 84 84 90 94 95 90 84 78 68 69 81 81 70 67 70 71 63 51 44 44 48 47 47 48 41 35 35 35 29 28 30 31 37 39 31 28 26 25 24 22 22 29 38
66 61 53 58 62 71 78 83 90 93 93 93 89 84 75 65 78 80 75 67 70 74 66 52 45 45 44 46 45 47 39 36 37 35 33 29 27 33 36 36 32 28 26 25 25 23 22 27 40
74 68 65 65 68 74 75 81 87 91 93 94 94 89 82 71 70 77 77 70 73 73 62 52 48 46 46 48 44 45 38 39 40 37 37 34 30 32 36 35 36 29 26 28 26 26 26 32 38
81 78 79 78 76 77 77 77 87 90 94 95 95 94 86 76 66 76 73 75 72 76 72 53 46 47 51 50 48 43 40 41 38 39 40 36 30 31 36 37 39 31 24 27 27 27 28 33 39
79 89 85 85 80 83 84 82 74 87 91 95 98 95 90 81 72 76 75 77 74 75 60 57 45 45 57 61 55 55 48 39 38 40 39 37 32 32 35 35 31 27 24 24 25 26 29 35 39
83 88 88 88 84 89 81 91 71 83 88 95 100 92 90 87 77 75 81 84 74 77 68 62 58 61 70 63 48 47 46 39 43 39 38 35 31 32 32 30 25 28 25 24 26 28 29 33 39
81 79 81 84 82 79 79 93 67 75 82 90 96 96 92 92 82 75 81 77 72 71 70 67 63 56 56 62 49 46 45 41 40 37 37 33 33 31 30 29 30 31 27 25 27 30 32 37 38
76 77 77 78 75 72 79 87 63 84 94 88 91 93 91 94 86 77 81 73 76 77 75 60 60 63 73 52 50 43 39 40 39 39 37 36 34 32 33 34 29 28 28 26 34 33 33 34 39
65 66 67 75 73 72 71 79 81 78 80 78 78 82 89 94 89 77 81 75 83 79 73 76 65 62 62 64 51 46 43 40 40 40 39 35 35 34 35 34 33 35 33 31 35 32 34 34 44
56 59 59 62 62 62 58 78 73 77 79 75 73 77 91 94 92 81 84 82 86 81 77 74 78 59 64 64 58 54 46 46 41 42 43 40 39 35 36 38 35 34 35 36 35 36 37 37 47
44 48 50 54 56 58 61 66 65 72 79 75 69 71 88 94 95 87 88 88 91 82 74 75 68 66 70 67 60 59 57 57 53 48 50 45 42 40 38 41 41 39 39 37 39 42 41 41 46
37 41 43 45 50 50 54 52 59 67 69 66 64 70 88 97 96 89 91 99 85 87 74 76 64 63 73 67 63 68 67 69 55 51 52 54 47 45 39 40 43 44 44 46 46 45 44 45 49
Wind_Direction
239 236 235 237 236 237 243 246 244 239 238 239 236 238 239 248 248 244 247 253 255 263 263 267 270 268 273 288 297 305 311 314 317 319 322 320 318 322 321 318 309 302 297 299 302 303 307 307 308
241 240 237 234 236 235 240 246 244 240 238 239 238 236 239 244 246 245 251 250 254 261 262 264 266 268 272 283 291 297 305 312 316 319 321 321 310 312 316 316 313 304 300 299 302 306 304 304 306
239 239 240 236 234 233 237 246 245 241 238 239 240 237 236 234 250 247 247 252 257 256 256 262 265 269 271 281 287 293 302 312 315 317 322 321 313 317 320 317 316 313 312 311 313 312 311 312 318
242 241 239 237 235 229 232 241 245 240 240 239 239 236 235 232 238 242 243 252 251 248 245 264 267 266 266 278 285 290 300 310 314 315 319 321 314 318 322 318 314 313 316 318 322 334 335 335 343
242 242 241 238 237 235 230 236 242 243 241 240 238 236 232 230 233 237 240 238 239 240 247 261 262 263 262 274 282 288 295 306 311 313 319 317 317 320 325 322 318 317 323 334 358 357 7 1 356
242 241 241 240 238 240 237 237 240 245 242 237 233 232 232 228 230 234 235 235 238 246 251 255 257 257 262 270 278 285 293 301 305 309 314 317 315 319 323 318 313 320 337 18 35 33 17 6 4
246 243 241 238 237 238 238 238 236 241 242 237 233 229 229 228 230 232 233 236 240 243 248 255 250 252 259 269 276 283 291 297 302 305 312 317 313 319 318 322 324 331 34 41 37 22 9 7 1
246 245 245 241 237 238 238 240 238 239 242 240 235 231 224 228 231 231 230 236 241 241 239 245 247 249 257 265 273 278 286 294 299 302 312 316 308 316 308 316 315 92 93 26 24 14 3 2 357
243 244 245 242 241 240 240 238 239 239 240 241 236 231 229 226 228 229 229 232 235 235 235 239 243 246 254 259 268 273 284 290 295 301 308 311 305 296 313 329 137 137 36 358 8 3 355 352 354
243 240 240 242 242 244 242 237 236 236 239 238 237 232 229 225 229 230 231 229 229 233 237 238 236 242 247 252 260 267 281 285 295 301 302 300 268 298 277 171 160 211 290 327 350 347 343 342 346
247 241 239 240 239 241 245 242 236 234 236 237 235 232 229 226 224 228 230 230 227 230 230 232 236 240 246 252 253 260 274 279 292 298 296 289 244 289 209 186 197 255 283 322 336 337 336 339 340
246 244 242 241 238 237 241 243 240 235 233 237 235 230 229 227 225 228 224 228 230 229 228 232 235 238 248 245 252 255 267 275 286 294 288 268 233 253 216 221 235 268 299 314 328 330 333 342 344
245 245 242 241 239 238 237 239 239 236 234 234 236 233 228 228 224 228 230 231 236 233 231 233 234 239 246 239 249 255 264 270 276 289 279 247 231 251 253 239 257 275 299 312 328 324 326 334 347
251 243 242 239 241 237 237 237 237 239 236 234 232 234 229 227 228 227 230 226 227 232 235 235 233 235 233 240 253 255 260 266 272 281 270 240 236 252 250 243 256 276 293 312 320 322 324 335 345
257 247 240 237 238 238 234 234 234 236 235 233 230 229 233 226 227 225 228 227 223 224 230 238 233 234 235 242 250 252 257 263 269 275 268 239 235 238 254 248 260 277 291 302 322 322 332 335 334
258 251 245 239 239 234 235 226 235 233 236 233 230 227 229 229 225 228 227 229 223 222 223 234 239 241 240 242 250 256 257 261 265 270 266 240 232 235 246 251 262 269 279 291 311 328 333 334 329
257 253 246 241 238 235 234 224 232 232 233 232 230 227 224 229 226 225 223 224 223 219 221 228 239 242 245 240 246 251 252 257 262 261 260 246 238 238 244 254 266 271 280 294 314 324 332 335 327
249 244 242 241 240 237 233 223 227 232 230 230 230 226 223 221 227 221 220 220 218 218 217 221 233 239 242 240 244 249 247 258 264 263 265 255 252 246 249 257 267 273 280 294 315 324 334 335 330
250 246 242 243 241 239 233 222 225 229 230 229 228 227 223 219 218 223 219 219 217 216 216 216 226 235 240 245 250 254 248 253 263 268 268 254 264 257 251 257 264 267 276 288 305 320 327 332 341
253 250 245 243 244 237 234 223 222 226 229 228 227 225 223 220 216 222 219 217 215 214 213 213 218 236 240 249 247 249 244 246 255 267 267 260 264 264 255 256 258 266 271 285 301 314 317 323 329
253 250 245 238 241 238 231 224 222 223 224 227 226 224 222 218 215 215 218 212 212 212 208 208 212 227 236 243 246 248 246 247 259 268 263 266 262 263 256 255 257 260 271 279 291 308 312 317 322
250 249 244 238 232 237 235 224 224 223 221 225 225 221 220 216 215 210 213 210 210 211 205 210 208 221 238 239 246 245 245 251 254 257 261 270 266 264 263 258 264 255 267 281 288 305 312 328 330
248 247 245 240 235 232 235 230 220 223 221 222 226 220 217 214 213 208 206 207 213 213 203 202 200 216 227 241 244 242 248 247 253 252 260 268 267 264 258 260 248 255 268 276 288 304 317 325 329
244 242 242 241 235 234 229 240 215 225 222 222 223 219 214 214 209 208 206 205 210 207 202 199 207 211 224 230 242 244 239 247 252 249 261 264 267 257 257 253 250 259 271 275 288 309 318 327 326
245 243 242 241 238 236 230 238 217 225 227 224 222 218 211 211 207 207 205 202 208 208 198 203 210 211 215 225 238 244 239 243 242 250 256 259 266 260 250 252 263 273 272 276 294 307 311 319 320
243 239 239 239 237 232 227 232 218 221 224 222 221 216 209 208 205 203 204 200 201 194 195 193 200 202 212 229 228 234 240 236 241 248 247 254 258 254 250 257 264 265 279 276 296 294 301 310 317
244 242 238 236 233 230 225 230 220 224 227 227 223 215 205 206 202 201 203 193 197 194 197 198 206 211 210 214 225 235 235 232 238 248 246 247 253 254 255 255 258 257 264 276 280 290 295 302 313
236 235 236 235 236 233 224 224 219 218 221 222 220 209 203 203 199 198 200 191 192 198 197 208 204 201 195 210 223 227 226 234 244 246 244 255 257 256 257 259 262 269 273 274 278 285 292 305 303
228 231 227 227 231 231 224 223 217 213 216 218 215 206 200 200 196 197 197 185 188 190 198 199 203 203 200 210 224 231 236 242 247 241 248 253 255 260 258 259 261 264 271 271 277 285 294 298 301
216 218 220 218 222 223 218 215 214 210 214 211 208 201 196 197 193 196 193 187 184 189 193 194 199 205 205 214 232 237 243 247 242 240 246 254 258 261 258 259 261 266 270 276 281 285 292 294 301
Height
10771 10778 10784 10790 10795 10797 10789 10784 10799 10811 10818 10825 10833 10837 10839 10838 10846 10848 10849 10851 10853 10856 10857 10859 10861 10861 10861 10861 10861 10859 10858 10857 10855 10854 10854 10854 10853 10851 10849 10847 10845 10844 10842 10842 10841 10840 10838 10836 10834
10761 10767 10772 10781 10788 10792 10785 10773 10779 10798 10809 10816 10826 10833 10836 10835 10837 10843 10844 10847 10849 10852 10853 10855 10856 10857 10858 10858 10858 10858 10856 10855 10854 10853 10852 10852 10851 10850 10847 10845 10842 10840 10839 10838 10838 10837 10835 10833 10832
10748 10753 10760 10772 10781 10786 10777 10757 10754 10784 10797 10809 10818 10825 10830 10834 10828 10836 10841 10842 10846 10847 10849 10850 10851 10852 10853 10854 10855 10855 10853 10852 10851 10850 10849 10849 10848 10847 10845 10841 10838 10837 10836 10836 10835 10834 10833 10831 10830
10735 10742 10749 10761 10770 10767 10761 10739 10738 10767 10789 10801 10810 10818 10824 10828 10824 10827 10835 10838 10840 10843 10844 10846 10846 10848 10849 10849 10850 10851 10850 10849 10848 10847 10847 10846 10845 10844 10842 10838 10835 10834 10833 10834 10834 10832 10831 10829 10827
10723 10729 10740 10748 10749 10746 10739 10731 10735 10763 10780 10795 10802 10810 10817 10821 10820 10820 10827 10832 10835 10838 10839 10841 10842 10844 10844 10845 10846 10847 10847 10846 10846 10845 10844 10843 10842 10841 10839 10836 10833 10832 10832 10832 10832 10830 10828 10827 10824
10712 10717 10727 10730 10732 10729 10729 10726 10750 10748 10763 10780 10791 10799 10807 10812 10813 10816 10822 10825 10828 10832 10834 10837 10838 10840 10841 10842 10843 10843 10844 10844 10843 10842 10841 10841 10839 10837 10835 10834 10832 10832 10832 10831 10831 10829 10827 10825 10822
10702 10708 10711 10713 10712 10709 10708 10724 10740 10732 10742 10762 10781 10790 10799 10802 10804 10809 10816 10819 10822 10826 10830 10833 10834 10836 10838 10839 10839 10840 10841 10841 10840 10839 10838 10838 10836 10834 10832 10831 10831 10831 10831 10830 10829 10827 10825 10822 10819
10693 10697 10696 10697 10694 10688 10698 10716 10724 10727 10728 10750 10768 10783 10788 10793 10795 10802 10809 10812 10815 10819 10823 10826 10829 10831 10832 10834 10835 10836 10837 10838 10837 10837 10835 10835 10833 10831 10830 10830 10830 10830 10830 10830 10828 10826 10823 10821 10817
10681 10687 10683 10683 10683 10681 10689 10703 10709 10717 10723 10735 10757 10768 10778 10786 10786 10791 10798 10803 10807 10812 10815 10819 10822 10825 10828 10830 10831 10832 10833 10835 10834 10834 10832 10832 10831 10830 10828 10828 10829 10829 10829 10828 10827 10824 10821 10819 10816
10668 10675 10668 10671 10674 10672 10674 10686 10694 10707 10708 10719 10738 10755 10766 10776 10780 10782 10788 10795 10799 10805 10809 10813 10816 10819 10822 10824 10827 10828 10830 10831 10832 10831 10830 10829 10828 10828 10827 10828 10828 10827 10827 10826 10826 10822 10820 10817 10814
10653 10659 10655 10656 10662 10665 10664 10672 10682 10692 10695 10701 10716 10739 10751 10762 10769 10773 10779 10785 10792 10798 10804 10806 10810 10814 10817 10819 10821 10823 10826 10827 10828 10829 10828 10827 10826 10826 10826 10827 10826 10826 10824 10824 10825 10821 10818 10815 10811
10638 10637 10639 10641 10648 10653 10651 10656 10671 10674 10680 10681 10704 10721 10735 10747 10757 10760 10767 10775 10783 10788 10795 10800 10803 10808 10811 10813 10816 10818 10821 10823 10825 10825 10826 10825 10823 10825 10825 10825 10824 10823 10823 10822 10823 10820 10816 10813 10808
10618 10618 10625 10627 10630 10637 10638 10643 10651 10662 10663 10670 10684 10705 10723 10734 10742 10749 10761 10772 10778 10782 10787 10792 10797 10802 10805 10807 10810 10812 10816 10818 10820 10821 10822 10822 10821 10822 10823 10823 10822 10821 10821 10819 10819 10817 10814 10811 10806
10594 10603 10607 10611 10610 10615 10621 10627 10640 10648 10650 10657 10670 10683 10704 10720 10729 10740 10748 10760 10769 10774 10779 10784 10789 10794 10798 10801 10803 10806 10810 10813 10815 10817 10817 10818 10819 10819 10820 10820 10820 10819 10818 10817 10816 10814 10810 10807 10803
10570 10578 10584 10591 10589 10592 10598 10617 10637 10622 10630 10640 10656 10670 10682 10705 10717 10729 10735 10747 10759 10767 10773 10776 10781 10786 10790 10794 10798 10801 10805 10807 10811 10812 10813 10815 10816 10817 10817 10817 10818 10817 10816 10816 10814 10810 10807 10803 10799
10544 10550 10560 10565 10563 10566 10572 10617 10602 10607 10613 10628 10642 10657 10668 10686 10703 10715 10726 10738 10749 10757 10764 10766 10773 10779 10784 10788 10792 10796 10799 10802 10806 10807 10808 10811 10812 10814 10814 10813 10815 10814 10812 10811 10809 10805 10801 10798 10794
10524 10530 10533 10534 10537 10546 10559 10597 10582 10587 10595 10612 10627 10643 10657 10669 10690 10703 10713 10728 10740 10748 10754 10760 10765 10771 10778 10783 10787 10790 10793 10797 10801 10803 10804 10807 10808 10809 10810 10810 10810 10809 10808 10807 10805 10801 10797 10793 10790
10498 10502 10508 10512 10516 10520 10541 10571 10563 10560 10580 10596 10610 10628 10643 10657 10671 10687 10699 10711 10725 10736 10743 10750 10758 10765 10771 10776 10780 10784 10788 10792 10795 10798 10800 10801 10803 10804 10804 10805 10806 10805 10804 10802 10801 10798 10794 10790 10787
10481 10488 10497 10498 10495 10499 10516 10540 10539 10546 10562 10579 10596 10611 10631 10644 10655 10672 10687 10701 10715 10724 10733 10743 10752 10758 10764 10769 10772 10777 10782 10788 10790 10792 10795 10796 10797 10798 10798 10799 10801 10802 10800 10799 10797 10794 10791 10787 10784
10461 10471 10484 10479 10479 10480 10490 10515 10521 10531 10546 10562 10578 10596 10614 10627 10644 10657 10677 10689 10700 10710 10723 10732 10743 10750 10756 10760 10764 10769 10776 10781 10783 10786 10789 10790 10791 10792 10791 10793 10795 10796 10796 10794 10793 10789 10786 10783 10779
10438 10451 10458 10461 10457 10459 10472 10488 10501 10515 10530 10538 10559 10578 10597 10617 10630 10643 10663 10678 10689 10701 10715 10723 10733 10741 10747 10752 10757 10762 10770 10774 10777 10781 10784 10784 10786 10787 10786 10788 10788 10790 10791 10789 10788 10784 10781 10778 10774
10413 10424 10424 10431 10439 10443 10448 10468 10479 10495 10511 10522 10535 10559 10580 10602 10616 10631 10648 10667 10680 10691 10702 10715 10723 10729 10737 10742 10748 10754 10760 10765 10771 10775 10777 10778 10780 10780 10780 10782 10782 10784 10785 10784 10783 10780 10777 10773 10770
10391 10380 10395 10404 10421 10422 10427 10439 10473 10474 10493 10508 10514 10539 10562 10584 10601 10616 10633 10652 10666 10679 10692 10702 10711 10716 10728 10734 10739 10745 10752 10758 10764 10767 10770 10771 10774 10773 10775 10775 10776 10778 10779 10778 10777 10774 10772 10768 10764
10351 10351 10362 10373 10392 10394 10426 10407 10463 10462 10479 10486 10496 10521 10549 10566 10585 10599 10614 10630 10649 10666 10679 10691 10699 10716 10718 10726 10731 10736 10742 10749 10756 10760 10763 10764 10767 10768 10768 10768 10771 10772 10772 10771 10770 10768 10766 10762 10759
10319 10333 10340 10348 10365 10387 10409 10392 10458 10456 10461 10469 10477 10498 10522 10544 10567 10585 10603 10620 10637 10656 10672 10683 10691 10701 10709 10716 10721 10727 10733 10741 10747 10753 10756 10757 10760 10762 10763 10763 10765 10766 10766 10765 10764 10762 10760 10757 10753
10294 10307 10318 10328 10345 10366 10375 10375 10441 10422 10410 10436 10455 10478 10508 10530 10553 10571 10588 10605 10623 10644 10661 10670 10682 10691 10699 10705 10713 10718 10724 10732 10740 10745 10749 10750 10753 10756 10757 10758 10758 10760 10759 10758 10757 10754 10753 10751 10747
10278 10289 10305 10309 10325 10338 10362 10365 10384 10407 10420 10436 10452 10475 10500 10518 10542 10564 10581 10598 10613 10633 10651 10661 10671 10680 10688 10701 10699 10708 10717 10725 10730 10737 10742 10745 10746 10749 10750 10752 10752 10752 10752 10751 10750 10749 10746 10743 10742
10261 10271 10283 10296 10309 10324 10349 10341 10367 10387 10401 10419 10435 10457 10482 10505 10529 10551 10567 10590 10608 10625 10639 10651 10663 10672 10682 10691 10692 10700 10708 10716 10723 10730 10733 10737 10739 10741 10743 10744 10745 10745 10745 10743 10743 10741 10739 10738 10736
10253 10264 10275 10286 10295 10311 10323 10333 10357 10372 10383 10404 10425 10450 10471 10493 10518 10541 10559 10580 10594 10609 10626 10641 10654 10664 10674 10680 10683 10691 10701 10708 10716 10721 10725 10729 10731 10733 10735 10736 10737 10737 10737 10736 10735 10734 10732 10731 10730
10245 10254 10265 10278 10288 10299 10309 10329 10342 10361 10376 10398 10418 10439 10460 10483 10508 10528 10548 10563 10583 10602 10619 10632 10642 10654 10666 10670 10675 10683 10693 10700 10707 10710 10717 10720 10722 10724 10726 10728 10730 10730 10730 10730 10727 10725 10725 10724 10723